Back to catalog

COSMOS 374 DEB

AliveUNKNOWN
NORAD 4823·DEBRIS·🇷🇺 Russia

Launched Oct 23, 1970 from Baikonur Cosmodrome

Loading…

Next Passes

TLE

Source: Space-Track
1 04823U 70089T   26230.05575890  .00000241  00000-0  27242-3 0  9990
2 04823  63.0172 104.7680 0944459  26.2060 338.3698 12.66338082544456

Track COSMOS 374 DEB in real time with AllMySat

Download on the App Store